Temp
62 62 63 66 63 63 62 63 66 68 71 74 74 74 72 74 73 72 71 72 72 72 71 71 70 71 67 67 67 66 66 65 63 63 65 66 66 66 67 67 67 65 65
63 62 62 62 61 61 60 61 63 64 70 74 74 73 72 72 65 66 71 73 66 71 72 71 71 71 67 68 67 66 67 65 64 63 62 63 65 66 66 65 66 68 66
63 62 61 62 60 59 58 58 61 63 67 70 71 66 63 67 62 62 62 62 62 60 66 69 70 70 66 67 67 66 65 64 63 62 61 62 64 64 64 64 65 64 66
58 58 57 57 59 61 59 58 59 60 60 65 61 61 61 62 62 63 61 61 59 59 62 65 67 68 67 66 65 64 64 63 62 61 60 61 61 62 63 62 61 63 62
57 56 55 57 58 58 59 58 58 58 60 63 60 60 60 60 63 61 62 63 61 61 64 70 68 67 65 65 66 62 62 61 59 58 57 58 59 59 60 61 61 63 61
53 54 55 56 57 57 57 58 56 56 58 61 59 61 58 62 54 54 62 64 65 66 67 67 64 63 62 60 61 60 62 60 57 56 54 54 56 59 60 60 59 58 56
50 51 52 53 54 56 58 57 55 54 54 56 57 61 59 61 52 51 55 64 65 67 66 63 69 71 65 66 59 58 57 55 58 58 56 56 58 60 61 60 59 58 58
48 50 51 52 52 54 55 54 55 54 54 55 56 59 59 63 52 55 53 63 66 64 64 63 66 64 65 65 63 62 62 61 59 58 57 59 59 60 61 62 61 60 59
46 48 50 51 51 54 53 54 54 54 55 54 56 58 58 61 52 50 53 65 64 63 66 67 66 64 52 54 63 61 60 59 61 56 53 50 49 51 54 61 59 57 55
43 45 49 50 50 50 53 50 53 54 56 57 57 57 58 61 50 49 57 70 63 62 65 64 58 61 49 53 60 59 57 57 59 60 57 52 50 55 49 59 61 60 56
43 45 46 48 48 50 52 51 49 52 55 55 55 55 57 60 53 52 57 70 65 65 66 62 61 52 47 47 53 58 56 56 56 57 56 56 58 60 62 59 62 63 58
44 44 44 45 48 50 50 50 50 51 50 53 53 53 56 56 53 48 56 59 61 67 65 63 61 51 47 46 45 49 43 46 54 55 54 54 56 59 63 63 62 62 62
44 43 44 45 46 48 49 47 50 50 49 51 52 52 54 57 54 48 51 53 54 61 61 58 44 42 41 41 42 42 43 50 52 52 53 53 57 61 63 63 62 62 63
43 44 43 43 44 46 49 50 51 48 52 50 52 52 53 56 54 53 50 51 51 54 50 49 49 49 48 51 46 43 51 52 52 52 54 55 60 61 61 61 60 60 59
44 44 44 43 44 44 47 49 51 53 50 53 52 53 52 55 56 52 52 55 56 56 54 54 53 52 53 54 54 55 54 54 53 54 56 56 58 60 60 61 60 59 58
43 43 42 43 43 45 46 47 46 45 45 44 45 52 54 51 47 47 48 48 46 47 54 53 52 53 54 54 55 55 56 55 55 56 56 57 59 60 60 60 60 60 58
43 43 43 43 44 44 42 44 47 49 44 43 44 45 49 50 46 47 46 47 44 46 53 52 53 54 55 56 56 55 56 58 58 58 58 58 59 60 57 59 60 59 59
45 43 43 45 44 46 47 46 47 50 47 47 46 44 45 45 45 45 47 45 52 47 52 52 54 55 56 56 56 56 57 57 57 58 58 59 59 59 59 59 60 59 58
46 46 47 47 47 46 48 48 49 50 50 49 50 45 41 42 42 43 42 56 54 56 57 54 55 55 56 56 56 57 57 57 57 58 57 58 58 59 58 59 59 50 53
49 43 45 47 47 47 47 47 47 46 48 49 49 50 49 48 50 47 46 53 56 58 58 58 56 56 56 56 56 56 56 55 56 57 57 58 59 59 58 59 58 58 57
48 49 45 47 48 47 46 47 45 45 45 45 49 49 37 46 50 53 51 54 53 55 58 56 55 55 56 56 56 57 56 56 56 57 58 58 58 58 59 59 59 59 58
45 49 50 50 49 49 49 47 44 47 46 45 45 50 36 50 48 54 55 55 57 56 56 57 56 57 59 59 58 57 57 58 56 58 59 59 58 59 59 59 58 58 57
40 42 44 49 50 46 48 48 47 47 47 48 46 47 51 49 48 49 55 56 56 58 58 56 56 56 57 58 58 57 58 61 60 61 59 58 58 59 59 57 58 58 57
37 37 39 40 42 44 48 48 48 44 47 45 47 49 49 53 51 51 51 52 53 54 56 56 58 59 58 58 60 62 62 59 60 61 60 59 59 55 58 58 59 59 58
34 34 35 35 37 38 40 41 46 50 50 50 49 49 48 48 49 50 51 53 52 53 54 55 58 58 57 58 59 61 54 40 57 51 60 60 59 59 60 59 59 58 56
33 33 32 32 34 34 36 37 38 40 43 49 51 51 51 51 51 52 52 52 54 55 60 57 59 59 58 58 59 52 41 40 47 41 58 59 59 59 60 59 59 58 57
MSLP
1003.95 1003.62 1003.21 1002.85 1003.00 1002.77 1002.62 1002.29 1001.95 1001.73 1000.86 999.48 999.02 999.15 999.53 1000.08 1000.38 1000.83 1001.30 1001.30 1001.60 1002.56 1002.60 1002.26 1002.92 1003.26 1004.90 1006.05 1006.64 1007.26 1007.59 1008.22 1008.98 1009.15 1009.12 1008.82 1008.83 1008.70 1008.64 1008.45 1008.39 1008.49 1008.57
1004.35 1003.54 1002.88 1002.65 1002.35 1002.24 1002.06 1001.92 1001.66 1001.28 1000.36 998.79 998.39 998.19 998.24 998.53 999.57 1000.64 1001.47 1002.38 1002.92 1002.35 1001.45 1002.11 1002.92 1002.48 1003.87 1005.33 1005.88 1006.01 1006.89 1007.78 1008.45 1008.85 1008.79 1008.72 1008.63 1008.23 1008.19 1008.25 1008.29 1008.05 1008.20
1003.95 1003.59 1003.23 1002.65 1002.00 1001.32 1001.06 1001.10 1001.03 1000.62 999.90 998.33 997.73 997.91 998.05 998.45 1000.11 1000.50 1001.41 1003.46 1003.28 1001.73 1000.49 1001.61 1003.11 1002.24 1003.61 1004.87 1004.86 1005.34 1006.35 1007.26 1007.84 1008.41 1008.59 1008.38 1008.06 1007.74 1007.88 1008.16 1008.06 1007.89 1007.94
1004.15 1003.62 1003.16 1002.42 1002.10 1001.53 1000.77 1000.28 1000.22 1000.31 999.83 998.75 997.70 997.80 998.08 998.78 999.89 1000.56 1000.70 1000.31 1001.51 1001.93 1003.59 1003.07 1004.28 1002.80 1002.48 1003.76 1004.46 1005.07 1006.09 1006.91 1007.46 1008.01 1008.29 1008.04 1007.93 1007.55 1007.57 1007.99 1008.11 1007.74 1007.85
1003.76 1003.24 1002.77 1002.33 1001.84 1001.01 1001.00 1000.08 999.64 999.75 999.24 998.19 997.67 997.66 997.47 997.76 998.51 999.42 999.64 999.97 1000.63 1001.59 1004.20 1003.27 1002.82 1002.51 1002.03 1003.52 1003.71 1004.55 1005.70 1006.43 1007.42 1007.90 1007.78 1007.99 1007.91 1007.87 1007.49 1007.68 1007.85 1007.62 1007.66
1003.39 1002.65 1002.14 1001.82 1001.50 1000.79 1000.63 1000.02 999.29 998.80 998.71 998.00 997.95 997.48 997.39 997.38 997.98 998.73 998.56 999.35 999.24 1000.69 1001.66 1001.68 1001.99 1002.13 1002.41 1002.57 1003.22 1004.11 1004.55 1005.68 1006.89 1007.69 1007.58 1007.69 1007.75 1007.35 1007.21 1007.33 1007.69 1007.72 1008.00
1002.69 1002.00 1001.39 1000.97 1000.58 1000.28 1000.16 999.69 999.04 998.33 998.33 998.34 998.26 998.08 997.82 997.31 997.09 998.49 998.41 998.88 998.15 999.87 1000.61 1000.82 1001.05 1001.20 1001.82 1002.55 1003.07 1003.62 1004.19 1005.11 1005.98 1006.71 1007.12 1007.36 1007.22 1006.66 1006.70 1006.94 1007.21 1007.37 1007.55
1001.99 1001.01 1000.45 1000.20 999.96 999.65 999.31 999.03 998.48 997.88 997.45 997.37 998.10 997.97 998.28 997.82 997.24 997.03 997.44 998.09 997.99 999.01 999.56 1000.72 1000.70 1001.25 1001.66 1002.24 1003.25 1004.34 1005.01 1004.97 1005.86 1006.14 1006.13 1006.46 1006.38 1006.29 1006.15 1006.36 1006.51 1006.83 1007.11
1001.27 1000.26 999.82 999.53 999.20 998.89 998.68 998.39 997.91 997.48 996.92 996.89 997.27 998.13 997.59 997.94 997.20 996.12 996.81 998.20 998.23 998.52 998.77 999.32 999.96 1000.75 1001.69 1002.42 1003.68 1004.52 1005.20 1005.23 1005.43 1005.40 1005.17 1006.06 1006.05 1005.66 1005.60 1006.08 1006.37 1006.85 1007.05
1000.65 999.94 999.39 999.04 998.39 998.36 998.21 997.64 997.37 996.76 996.45 996.41 996.54 996.30 996.46 997.20 996.85 996.39 997.14 996.67 997.56 998.38 998.78 999.15 999.87 1001.18 1002.22 1002.92 1003.93 1004.58 1005.18 1005.37 1005.19 1005.19 1005.75 1006.07 1005.50 1005.11 1005.05 1005.45 1005.63 1006.10 1006.59
999.86 999.29 998.75 998.55 998.24 997.98 997.38 997.05 996.78 996.27 996.09 995.95 995.99 995.49 995.54 994.98 995.65 995.79 995.42 995.95 997.11 998.10 999.04 999.66 1000.44 1001.17 1002.24 1003.02 1003.51 1004.09 1004.63 1004.92 1005.10 1005.23 1005.85 1005.72 1005.09 1004.70 1004.46 1004.72 1005.11 1005.29 1005.78
998.78 998.25 997.97 997.82 997.70 997.42 996.79 996.29 996.40 995.84 996.05 996.04 995.80 995.40 994.38 994.45 993.81 994.46 995.23 995.81 996.76 997.79 998.84 999.57 1000.44 1001.11 1002.26 1002.88 1003.66 1003.97 1004.50 1004.65 1004.93 1005.34 1005.41 1005.20 1004.84 1004.34 1004.03 1004.00 1004.41 1004.69 1004.90
997.62 997.18 996.95 996.98 997.09 997.06 996.52 995.87 996.01 995.74 995.92 996.34 996.40 996.55 996.13 995.47 995.68 995.75 995.82 996.16 997.12 998.21 998.95 999.64 1000.72 1001.24 1002.52 1003.01 1003.30 1003.78 1004.33 1004.58 1005.12 1005.14 1004.93 1004.69 1004.28 1003.84 1003.72 1003.83 1004.20 1004.37 1004.68
996.65 996.04 995.96 996.10 996.34 996.53 996.46 995.65 995.70 995.38 995.84 996.04 995.94 996.35 996.62 996.42 996.51 997.43 997.40 997.83 998.09 998.77 1000.03 1000.65 1000.91 1001.56 1002.32 1002.83 1003.43 1003.93 1003.79 1004.02 1004.11 1004.30 1004.24 1003.98 1003.73 1003.79 1003.81 1003.84 1004.13 1004.38 1004.84
995.87 994.82 995.28 995.64 995.82 995.94 996.20 995.76 995.45 995.37 995.48 995.78 996.02 995.53 996.49 996.77 996.66 997.73 998.11 998.42 998.65 999.45 1000.26 1001.10 1002.13 1002.59 1002.66 1002.34 1002.55 1002.87 1002.89 1003.13 1003.37 1003.46 1003.78 1003.86 1003.65 1003.57 1003.55 1003.56 1003.87 1004.26 1004.85
996.40 995.74 995.68 995.83 995.82 995.69 995.81 995.96 995.40 995.32 995.53 995.53 995.61 996.01 996.17 996.65 996.87 997.62 997.95 998.41 999.42 999.56 1000.49 1001.24 1001.39 1001.55 1001.85 1001.95 1002.26 1002.47 1002.38 1002.31 1002.56 1003.04 1003.27 1003.29 1003.25 1003.32 1003.42 1003.44 1003.55 1003.97 1004.56
997.07 996.54 996.21 996.10 995.98 995.81 995.75 995.60 995.69 995.49 995.53 995.58 995.61 995.79 996.23 997.23 996.70 997.99 998.62 998.59 999.60 1000.57 1000.74 1000.70 1000.90 1001.28 1001.46 1001.65 1001.77 1001.99 1002.17 1002.04 1001.92 1002.27 1002.45 1002.57 1002.70 1002.92 1003.18 1003.33 1003.34 1003.71 1004.15
997.25 996.84 996.51 996.25 995.99 995.70 995.58 995.33 995.28 995.36 995.99 995.98 995.95 995.93 996.35 996.62 996.69 997.19 997.99 998.74 1000.49 1000.38 1000.86 1000.82 1000.80 1000.67 1000.65 1001.00 1001.38 1001.67 1001.67 1001.74 1001.78 1001.87 1001.91 1002.06 1002.29 1002.56 1002.87 1003.07 1003.08 1003.35 1003.87
997.38 996.83 996.38 996.14 995.97 995.76 995.51 995.47 995.44 995.55 995.93 996.37 996.70 997.24 997.46 997.38 997.38 997.72 998.32 998.68 999.34 999.30 999.88 1000.29 1000.15 1000.09 1000.28 1000.63 1000.98 1001.35 1001.42 1001.46 1001.46 1001.59 1001.66 1001.68 1001.95 1002.22 1002.49 1002.66 1002.74 1003.09 1003.18
997.34 997.04 996.61 996.24 996.04 995.83 995.72 995.84 996.06 996.18 996.60 997.00 997.52 997.41 997.71 997.53 997.88 998.40 998.76 998.48 998.40 998.52 998.68 999.25 999.50 999.50 999.75 1000.13 1000.52 1000.91 1001.10 1001.01 1001.06 1001.25 1001.39 1001.42 1001.65 1001.86 1002.19 1002.41 1002.57 1002.95 1003.08
997.82 997.04 996.67 996.35 996.03 995.96 996.02 996.10 996.32 996.50 996.85 996.94 997.05 997.63 997.95 997.89 997.80 997.53 997.95 998.23 998.03 997.75 997.95 998.43 998.86 999.14 999.45 999.79 1000.14 1000.43 1000.59 1000.49 1000.61 1000.71 1000.93 1001.07 1001.25 1001.45 1001.68 1001.93 1002.05 1002.33 1002.65
998.84 997.52 996.61 996.38 996.14 996.00 996.00 996.06 996.26 996.41 996.64 996.88 997.04 997.08 997.67 997.87 997.79 997.63 997.47 997.29 997.33 997.54 997.76 998.10 998.50 998.73 998.93 999.13 999.33 999.54 999.85 999.88 999.95 1000.16 1000.36 1000.45 1000.68 1000.96 1001.26 1001.55 1001.73 1001.95 1002.33
1000.09 999.21 998.27 997.17 996.59 996.28 996.13 995.99 996.11 996.25 996.37 996.51 996.67 996.79 996.78 996.87 997.23 997.35 997.30 997.10 997.01 996.96 997.19 997.61 998.08 998.29 998.20 998.26 998.35 998.71 999.14 999.17 999.22 999.22 999.57 999.75 1000.12 1000.43 1000.67 1000.93 1001.31 1001.60 1001.99
1001.59 1000.74 999.98 999.22 998.48 997.65 996.99 996.43 996.12 995.95 995.87 996.00 996.05 996.17 996.29 996.14 996.33 996.70 996.78 996.57 996.54 996.53 996.65 996.94 997.19 997.34 997.51 997.68 997.81 997.82 997.93 998.26 998.39 998.49 998.67 999.14 999.50 999.84 1000.11 1000.52 1000.91 1001.11 1001.75
1002.97 1002.26 1001.51 1000.80 1000.08 999.37 998.70 997.83 997.06 995.88 995.47 995.33 995.31 995.39 995.47 995.40 995.45 995.74 995.94 995.74 995.96 995.92 996.11 996.15 996.20 996.40 996.55 996.74 996.91 997.08 997.13 997.32 997.43 997.65 998.08 998.51 998.87 999.24 999.62 1000.05 1000.55 1000.79 1001.32
1004.32 1003.65 1003.04 1002.23 1001.57 1000.87 1000.05 999.25 998.52 997.78 996.88 995.59 995.17 994.71 994.71 994.93 994.98 995.06 994.92 994.93 995.09 995.10 995.00 995.24 995.28 995.40 995.61 995.83 995.95 996.10 996.44 996.71 996.78 997.15 997.50 997.93 998.34 998.67 999.03 999.54 999.90 1000.29 1000.87
Wind_Speed
8 8 8 7 7 7 6 7 10 15 18 20 21 18 16 20 22 18 17 17 18 20 18 17 17 13 9 7 6 5 4 4 6 3 4 4 5 4 2 2 2 4 4
10 8 8 8 7 7 6 7 11 14 20 22 20 18 13 15 8 11 17 21 9 19 24 15 15 10 11 11 9 10 8 5 4 7 4 3 5 5 4 3 3 3 4
11 10 11 12 9 8 8 7 9 13 19 20 17 10 3 11 5 9 11 5 5 4 21 6 13 14 11 8 9 8 5 4 4 4 5 4 4 3 3 0 3 3 3
13 12 11 9 11 14 10 6 4 9 14 21 7 9 10 11 13 13 16 10 10 6 15 8 21 10 10 9 6 7 5 5 3 4 3 3 4 2 2 3 3 1 3
16 15 14 15 14 11 14 8 2 4 8 13 8 9 9 8 8 13 13 15 20 22 24 24 13 8 11 10 6 6 7 5 3 3 2 1 0 1 1 2 2 1 3
19 19 17 17 17 14 12 12 5 5 5 3 7 13 10 7 10 10 14 14 14 17 16 10 7 11 12 15 14 12 10 6 4 3 2 3 3 3 2 2 2 1 2
19 19 19 18 17 16 13 13 6 4 4 3 3 7 11 11 18 9 14 9 10 13 14 10 10 9 11 8 9 8 6 4 5 6 4 5 4 5 4 1 3 3 4
20 19 16 15 16 16 12 10 10 4 5 6 5 3 10 10 19 27 19 10 9 14 12 10 9 9 8 9 8 6 3 3 6 6 6 6 6 5 4 3 4 3 1
19 18 16 15 16 13 12 12 13 6 5 5 6 9 12 17 21 17 14 13 12 11 12 11 11 9 11 14 8 6 2 2 3 8 7 6 8 9 6 2 3 3 2
17 17 17 16 14 11 14 7 7 6 8 3 3 10 16 26 25 19 20 12 13 9 10 11 16 11 12 13 8 7 4 4 1 2 1 5 7 6 9 8 4 4 3
16 17 15 14 14 12 10 8 5 6 6 6 3 6 19 25 21 24 20 13 12 11 9 8 6 17 12 12 11 7 6 4 2 1 4 4 4 5 4 6 6 5 4
15 15 14 14 11 10 11 7 5 5 2 1 3 7 12 8 18 8 20 15 14 12 10 6 7 14 13 12 8 8 8 3 2 3 3 3 4 4 4 5 6 6 4
15 14 13 12 10 10 10 5 3 3 3 4 3 0 7 3 4 5 13 20 16 8 6 9 12 12 12 8 9 10 7 3 3 3 4 3 4 4 2 4 3 4 3
15 14 11 9 7 8 7 6 3 1 3 4 5 3 2 2 5 3 4 8 13 10 11 8 9 8 6 7 6 6 4 5 5 4 4 3 3 1 2 3 3 3 3
16 10 5 4 4 6 6 6 3 3 2 4 4 7 4 3 3 7 5 4 5 8 8 5 5 4 4 2 1 3 3 3 4 3 3 4 3 2 2 3 3 3 3
11 5 2 0 2 2 2 4 4 7 9 4 3 7 4 6 14 11 9 7 6 9 4 3 3 3 3 2 3 3 3 4 4 4 5 5 4 3 3 2 3 4 4
8 5 3 3 1 2 3 4 3 2 8 9 7 7 11 15 17 17 11 10 5 6 1 3 4 4 4 5 4 3 3 4 4 5 5 5 4 3 4 4 4 3 3
5 6 4 2 3 2 3 2 3 3 2 2 7 7 11 16 15 19 20 9 4 4 3 3 5 5 4 4 4 2 2 4 3 3 4 5 5 4 3 3 4 4 3
5 5 5 2 3 4 3 2 2 4 4 4 6 5 6 11 8 9 15 11 9 9 8 5 5 5 5 4 3 3 4 5 4 3 4 5 4 3 3 4 4 5 5
4 5 6 4 3 3 4 4 3 4 4 4 3 3 1 2 3 4 6 7 6 7 9 8 6 5 5 5 3 4 4 5 5 4 4 5 4 4 4 4 4 4 4
9 4 5 3 4 1 1 1 2 3 3 1 1 4 3 3 3 4 7 7 4 3 5 5 5 5 4 4 5 5 5 5 5 5 5 5 5 4 4 4 4 5 4
11 10 5 4 2 2 2 2 2 2 3 3 3 4 9 2 3 3 6 6 6 5 4 4 4 5 6 6 6 5 5 7 5 5 7 6 5 4 4 4 4 4 6
12 13 12 10 4 2 3 2 2 3 3 4 4 3 6 5 5 4 4 6 6 6 5 5 5 5 5 5 5 4 5 7 8 7 7 6 5 5 5 4 6 7 8
13 13 12 11 10 11 6 4 4 5 5 4 5 6 4 8 6 7 5 4 5 5 6 6 7 9 6 7 8 9 9 5 6 8 8 5 5 5 4 6 7 10 8
13 13 13 12 12 11 11 11 11 6 6 6 6 6 5 5 4 5 6 5 6 5 6 6 7 9 12 13 10 11 9 9 9 8 5 6 7 8 7 7 8 9 8
14 14 12 11 11 11 11 11 11 10 10 8 5 7 5 5 6 6 5 6 6 6 9 7 10 14 13 11 14 12 8 10 8 8 6 5 5 6 8 11 15 10 13
Wind_Direction
277 267 262 273 266 280 279 295 298 297 275 257 252 244 225 220 224 226 222 217 215 214 204 188 192 171 161 170 174 185 186 161 202 254 226 241 214 223 213 187 169 210 231
307 283 270 266 250 258 267 280 289 293 288 262 254 251 238 229 247 271 267 248 329 249 215 202 199 179 177 185 187 176 182 175 157 228 227 241 213 215 212 203 239 244 226
302 307 327 316 271 253 242 254 293 297 300 271 258 221 184 209 135 93 73 310 318 319 291 206 221 181 166 175 169 166 162 184 187 179 231 218 211 201 230 188 215 249 230
320 318 311 307 307 308 275 252 295 318 301 303 179 180 167 165 166 175 169 174 113 81 270 313 253 202 153 157 161 161 170 171 175 182 211 235 230 268 177 205 253 218 261
295 294 294 302 301 305 306 283 296 303 307 298 193 175 182 194 177 165 160 161 165 174 222 228 207 182 148 173 155 136 136 138 146 156 155 108 83 354 147 214 215 276 285
292 289 290 288 289 297 300 298 297 261 318 336 229 178 175 190 195 201 167 172 174 203 224 195 169 162 146 139 137 148 148 148 161 169 203 191 239 194 196 181 203 108 286
278 278 278 274 281 280 290 303 278 268 233 236 297 245 209 208 168 180 221 208 173 201 197 155 153 145 137 135 142 123 110 161 183 174 188 211 220 212 175 187 202 195 213
279 275 276 278 278 279 278 282 262 247 239 229 222 234 256 219 197 184 217 222 185 160 148 168 142 143 131 121 112 115 161 180 216 208 201 228 227 259 191 203 202 200 85
285 278 274 276 277 271 282 274 272 236 246 257 204 299 262 239 225 223 163 195 157 151 142 134 124 114 128 125 123 128 121 317 286 227 194 206 219 222 222 176 198 145 232
285 285 283 284 269 266 265 271 274 242 256 265 359 271 258 220 207 196 194 158 141 143 147 133 124 130 143 142 142 151 151 242 283 352 165 223 218 248 199 215 165 186 152
279 283 278 282 277 286 259 272 281 256 267 270 288 315 284 189 175 175 150 149 146 146 147 144 134 144 153 157 151 156 181 179 211 229 269 278 286 274 232 194 208 181 166
279 272 272 275 275 269 278 241 263 239 227 238 70 309 329 326 152 161 140 135 140 145 154 142 156 165 160 158 152 162 162 176 191 240 273 276 264 274 271 182 185 185 192
279 268 265 260 266 263 277 266 270 166 178 218 158 210 312 327 13 97 131 133 133 129 134 152 132 130 143 142 128 129 158 174 205 222 254 252 239 242 267 117 173 201 193
284 277 256 249 250 247 245 263 282 150 193 214 216 171 343 286 59 49 59 91 98 90 100 119 135 130 150 152 133 177 200 196 189 202 231 244 259 190 214 185 172 153 130
311 273 248 231 243 256 264 242 230 270 165 209 211 186 191 179 145 136 127 135 119 129 115 113 140 151 174 172 224 226 218 199 200 208 214 239 248 249 234 193 170 151 146
342 3 13 11 281 282 265 292 318 286 283 32 316 197 181 157 171 142 151 110 93 132 100 147 154 142 163 202 236 258 257 239 224 205 211 208 218 205 239 217 173 168 187
345 348 346 312 287 230 239 231 215 357 44 60 355 208 165 178 148 157 187 170 96 38 314 163 164 180 192 199 221 214 241 248 223 204 193 192 196 219 189 220 200 179 212
325 331 320 312 287 292 261 203 216 156 162 47 20 40 159 170 162 161 189 126 239 131 242 202 187 185 197 190 194 219 306 298 276 245 198 192 200 206 179 211 214 187 174
341 325 320 308 290 316 273 339 333 98 62 67 81 40 44 92 123 162 166 181 198 182 204 201 196 188 196 192 190 224 245 264 259 241 215 183 192 196 221 206 221 209 165
308 330 330 330 332 18 26 71 59 89 108 112 122 67 4 321 133 148 185 217 203 200 190 192 198 187 181 191 196 215 243 255 257 230 206 181 192 201 205 220 199 177 207
327 298 292 300 310 304 118 93 45 98 129 193 170 114 121 36 340 171 169 197 216 179 190 186 186 189 192 202 217 215 230 251 237 216 189 189 195 208 204 208 210 201 152
346 342 318 308 265 302 256 210 192 196 179 182 229 228 160 189 268 272 208 195 225 190 192 180 192 191 199 198 204 208 218 247 249 215 201 185 191 201 201 210 194 164 154
2 1 359 356 348 263 282 265 226 217 229 232 222 219 244 197 190 219 234 203 192 207 197 186 202 221 219 218 221 220 217 241 239 199 192 186 182 193 195 177 173 154 158
6 7 4 2 2 2 330 261 237 234 232 226 220 222 240 213 206 223 224 223 205 200 204 201 206 218 219 230 235 239 237 214 200 195 180 179 187 184 176 158 174 160 156
10 7 8 3 1 358 355 356 354 297 228 222 226 219 218 215 230 221 221 209 214 200 215 217 217 218 224 228 231 236 226 199 192 171 174 194 193 190 177 168 177 147 136
9 10 7 2 4 0 359 356 353 354 348 333 263 261 234 213 224 236 224 218 223 231 233 230 227 221 220 226 230 229 212 195 179 181 182 192 181 181 177 184 165 154 149